Time,TemperatureF,DewpointF,PressureIn,WindDirection,WindDirectionDegrees,WindSpeedMPH,WindSpeedGustMPH,Humidity,HourlyPrecipIn,Conditions,Clouds,dailyrainin,SolarRadiationWatts/m^2,SoftwareType,DateUTC
2013-02-28 00:00:00,33.0,30.9,29.62,SW,219,11.0,17.0,92,0.00,,---,0.26,0.00,VWS V14.01,2013-02-28 05:00:00,
2013-02-28 00:05:00,33.0,31.2,29.62,SW,223,9.0,15.0,93,0.00,,---,0.00,0.00,VWS V14.01,2013-02-28 05:05:00,
2013-02-28 00:10:00,33.0,31.2,29.61,SW,224,7.0,15.0,93,0.00,,---,0.00,0.00,VWS V14.01,2013-02-28 05:10:00,
2013-02-28 00:15:00,33.0,31.2,29.62,SSW,211,4.0,17.0,93,0.00,,---,0.00,0.00,VWS V14.01,2013-02-28 05:15:00,
2013-02-28 00:20:00,33.0,31.2,29.61,SW,217,7.0,17.0,93,0.00,,---,0.00,0.00,VWS V14.01,2013-02-28 05:20:00,
2013-02-28 00:25:00,33.0,31.2,29.61,WSW,249,5.0,17.0,93,0.00,,---,0.00,0.00,VWS V14.01,2013-02-28 05:25:00,
2013-02-28 00:30:00,33.0,31.2,29.61,WSW,246,6.0,7.0,93,0.00,,---,0.00,0.00,VWS V14.01,2013-02-28 05:30:00,
2013-02-28 00:35:00,33.0,31.2,29.61,SW,229,12.0,16.0,93,0.00,,---,0.00,0.00,VWS V14.01,2013-02-28 05:35:00,
2013-02-28 00:40:00,33.0,30.9,29.61,WSW,251,12.0,16.0,92,0.00,,---,0.00,0.00,VWS V14.01,2013-02-28 05:40:00,
2013-02-28 00:45:00,33.0,30.9,29.61,West,259,10.0,19.0,92,0.00,,---,0.00,0.00,VWS V14.01,2013-02-28 05:45:00,
2013-02-28 00:50:00,33.0,30.9,29.61,SW,217,11.0,19.0,92,0.00,,---,0.00,0.00,VWS V14.01,2013-02-28 05:50:00,
2013-02-28 00:55:00,33.0,30.7,29.61,SW,234,17.0,24.0,91,0.00,,---,0.00,0.00,VWS V14.01,2013-02-28 05:55:00,
2013-02-28 01:00:00,33.1,30.8,29.61,SW,225,11.0,13.0,91,0.00,,---,0.00,0.00,VWS V14.01,2013-02-28 06:00:00,
2013-02-28 01:06:00,33.0,30.7,29.61,SW,215,9.0,16.0,91,0.00,,---,0.00,0.00,VWS V14.01,2013-02-28 06:06:00,
2013-02-28 01:11:00,33.1,30.8,29.61,WSW,249,7.0,16.0,91,0.00,,---,0.00,0.00,VWS V14.01,2013-02-28 06:11:00,
2013-02-28 01:16:00,33.0,30.4,29.61,SW,236,14.0,16.0,90,0.00,,---,0.00,0.00,VWS V14.01,2013-02-28 06:16:00,
2013-02-28 01:21:00,33.0,30.4,29.61,SW,223,12.0,17.0,90,0.00,,---,0.00,0.00,VWS V14.01,2013-02-28 06:21:00,
2013-02-28 01:26:00,33.0,30.4,29.61,SW,230,14.0,17.0,90,0.00,,---,0.00,0.00,VWS V14.01,2013-02-28 06:26:00,
2013-02-28 01:30:00,32.7,29.8,29.61,SW,234,6.0,16.0,89,0.00,,---,0.00,0.00,VWS V14.01,2013-02-28 06:30:00,
2013-02-28 01:31:00,33.0,30.4,29.61,SW,217,13.0,13.0,90,0.00,,---,0.00,0.00,VWS V14.01,2013-02-28 06:31:00,
2013-02-28 01:36:00,33.0,30.4,29.61,WSW,246,14.0,15.0,90,0.00,,---,0.00,0.00,VWS V14.01,2013-02-28 06:36:00,
2013-02-28 01:41:00,32.9,30.3,29.61,WSW,246,5.0,16.0,90,0.00,,---,0.00,0.00,VWS V14.01,2013-02-28 06:41:00,
2013-02-28 01:46:00,32.9,30.3,29.61,SW,234,9.0,16.0,90,0.00,,---,0.00,0.00,VWS V14.01,2013-02-28 06:46:00,
2013-02-28 01:51:00,32.9,30.3,29.61,SW,235,5.0,16.0,90,0.00,,---,0.00,0.00,VWS V14.01,2013-02-28 06:51:00,
2013-02-28 01:56:00,32.9,30.0,29.61,SW,234,13.0,17.0,89,0.00,,---,0.00,0.00,VWS V14.01,2013-02-28 06:56:00,
2013-02-28 02:00:00,32.5,29.6,29.60,WSW,243,7.0,13.0,89,0.00,,---,0.00,0.00,VWS V14.01,2013-02-28 07:00:00,
2013-02-28 02:01:00,32.9,30.0,29.61,SW,229,5.0,8.0,89,0.00,,---,0.00,0.00,VWS V14.01,2013-02-28 07:01:00,
2013-02-28 02:06:00,32.9,30.0,29.61,SW,235,11.0,16.0,89,0.00,,---,0.00,0.00,VWS V14.01,2013-02-28 07:06:00,
2013-02-28 02:11:00,32.9,30.0,29.61,West,259,9.0,16.0,89,0.00,,---,0.00,0.00,VWS V14.01,2013-02-28 07:11:00,
2013-02-28 02:16:00,32.8,29.9,29.61,WSW,246,7.0,16.0,89,0.00,,---,0.00,0.00,VWS V14.01,2013-02-28 07:16:00,
2013-02-28 02:21:00,32.8,29.9,29.61,SW,235,7.0,16.0,89,0.00,,---,0.00,0.00,VWS V14.01,2013-02-28 07:21:00,
2013-02-28 02:26:00,32.8,29.9,29.61,WSW,244,6.0,16.0,89,0.00,,---,0.00,0.00,VWS V14.01,2013-02-28 07:26:00,
2013-02-28 02:30:00,32.5,29.1,29.60,West,262,12.0,18.0,87,0.00,,---,0.00,0.00,VWS V14.01,2013-02-28 07:30:00,
2013-02-28 02:31:00,32.7,29.8,29.61,SW,233,6.0,9.0,89,0.00,,---,0.00,0.00,VWS V14.01,2013-02-28 07:31:00,
2013-02-28 02:36:00,32.6,29.7,29.61,SW,232,5.0,12.0,89,0.00,,---,0.00,0.00,VWS V14.01,2013-02-28 07:36:00,
2013-02-28 02:41:00,32.6,29.7,29.61,WSW,248,6.0,12.0,89,0.00,,---,0.00,0.00,VWS V14.01,2013-02-28 07:41:00,
2013-02-28 02:46:00,32.6,29.7,29.61,WSW,240,11.0,12.0,89,0.00,,---,0.00,0.00,VWS V14.01,2013-02-28 07:46:00,
2013-02-28 02:51:00,32.5,29.6,29.61,WSW,246,5.0,13.0,89,0.00,,---,0.00,0.00,VWS V14.01,2013-02-28 07:51:00,
2013-02-28 02:56:00,32.6,29.7,29.61,WSW,246,10.0,13.0,89,0.00,,---,0.00,0.00,VWS V14.01,2013-02-28 07:56:00,
2013-02-28 03:00:00,32.4,29.2,29.61,WSW,238,6.0,17.0,88,0.00,,---,0.00,0.00,VWS V14.01,2013-02-28 08:00:00,
2013-02-28 03:01:00,32.5,29.6,29.61,SW,234,7.0,9.0,89,0.00,,---,0.00,0.00,VWS V14.01,2013-02-28 08:01:00,
2013-02-28 03:06:00,32.5,29.6,29.61,SW,235,7.0,15.0,89,0.00,,---,0.00,0.00,VWS V14.01,2013-02-28 08:06:00,
2013-02-28 03:11:00,32.5,29.4,29.61,WSW,252,7.0,15.0,88,0.00,,---,0.00,0.00,VWS V14.01,2013-02-28 08:11:00,
2013-02-28 03:16:00,32.5,29.4,29.61,WSW,242,9.0,15.0,88,0.00,,---,0.00,0.00,VWS V14.01,2013-02-28 08:16:00,
2013-02-28 03:21:00,32.5,29.4,29.60,WSW,243,7.0,15.0,88,0.00,,---,0.00,0.00,VWS V14.01,2013-02-28 08:21:00,
2013-02-28 03:26:00,32.5,29.4,29.60,WSW,240,5.0,15.0,88,0.00,,---,0.00,0.00,VWS V14.01,2013-02-28 08:26:00,
2013-02-28 03:30:00,31.9,29.3,29.61,WSW,239,5.0,15.0,90,0.00,,---,0.00,0.00,VWS V14.01,2013-02-28 08:30:00,
2013-02-28 03:31:00,32.5,29.1,29.61,WSW,237,13.0,17.0,87,0.00,,---,0.00,0.00,VWS V14.01,2013-02-28 08:31:00,
2013-02-28 03:36:00,32.5,29.1,29.60,SW,225,8.0,17.0,87,0.00,,---,0.00,0.00,VWS V14.01,2013-02-28 08:36:00,
2013-02-28 03:41:00,32.5,29.1,29.60,WSW,247,11.0,17.0,87,0.00,,---,0.00,0.00,VWS V14.01,2013-02-28 08:41:00,
2013-02-28 03:46:00,32.4,29.0,29.61,SW,236,13.0,17.0,87,0.00,,---,0.00,0.00,VWS V14.01,2013-02-28 08:46:00,
2013-02-28 03:51:00,32.4,29.0,29.61,WSW,242,11.0,17.0,87,0.00,,---,0.00,0.00,VWS V14.01,2013-02-28 08:51:00,
2013-02-28 03:56:00,32.4,29.2,29.61,WSW,243,5.0,17.0,88,0.00,,---,0.00,0.00,VWS V14.01,2013-02-28 08:56:00,
2013-02-28 04:00:00,31.5,29.2,29.61,WSW,251,6.0,15.0,91,0.00,,---,0.00,0.00,VWS V14.01,2013-02-28 09:00:00,
2013-02-28 04:01:00,32.3,29.1,29.61,WSW,248,5.0,7.0,88,0.00,,---,0.00,0.00,VWS V14.01,2013-02-28 09:01:00,
2013-02-28 04:06:00,32.3,29.4,29.61,SW,229,6.0,12.0,89,0.00,,---,0.00,0.00,VWS V14.01,2013-02-28 09:06:00,
2013-02-28 04:11:00,32.2,29.3,29.61,WSW,247,7.0,12.0,89,0.00,,---,0.00,0.00,VWS V14.01,2013-02-28 09:11:00,
2013-02-28 04:16:00,32.1,29.2,29.61,SW,223,4.0,12.0,89,0.00,,---,0.00,0.00,VWS V14.01,2013-02-28 09:16:00,
2013-02-28 04:21:00,32.0,29.4,29.61,SW,228,10.0,12.0,90,0.00,,---,0.00,0.00,VWS V14.01,2013-02-28 09:21:00,
2013-02-28 04:26:00,31.9,29.3,29.61,SW,229,7.0,14.0,90,0.00,,---,0.00,0.00,VWS V14.01,2013-02-28 09:26:00,
2013-02-28 04:30:00,31.4,29.4,29.61,WSW,238,8.0,12.0,92,0.00,,---,0.00,0.00,VWS V14.01,2013-02-28 09:30:00,
2013-02-28 04:31:00,31.9,29.6,29.61,WSW,245,10.0,11.0,91,0.00,,---,0.00,0.00,VWS V14.01,2013-02-28 09:31:00,
2013-02-28 04:36:00,31.8,29.5,29.61,WSW,247,9.0,14.0,91,0.00,,---,0.00,0.00,VWS V14.01,2013-02-28 09:36:00,
2013-02-28 04:41:00,31.7,29.4,29.61,SW,227,11.0,14.0,91,0.00,,---,0.00,0.00,VWS V14.01,2013-02-28 09:41:00,
2013-02-28 04:46:00,31.6,29.3,29.61,SW,230,5.0,15.0,91,0.00,,---,0.00,0.00,VWS V14.01,2013-02-28 09:46:00,
2013-02-28 04:51:00,31.6,29.3,29.61,SW,230,6.0,15.0,91,0.00,,---,0.00,0.00,VWS V14.01,2013-02-28 09:51:00,
2013-02-28 04:56:00,31.5,29.2,29.61,West,261,10.0,15.0,91,0.00,,---,0.00,0.00,VWS V14.01,2013-02-28 09:56:00,
2013-02-28 05:00:00,31.4,29.6,29.61,SW,226,6.0,17.0,93,0.00,,---,0.00,0.00,VWS V14.01,2013-02-28 10:00:00,
2013-02-28 05:01:00,31.5,29.2,29.61,SW,219,8.0,12.0,91,0.00,,---,0.00,0.00,VWS V14.01,2013-02-28 10:01:00,
2013-02-28 05:06:00,31.4,29.1,29.61,WSW,249,5.0,12.0,91,0.00,,---,0.00,0.00,VWS V14.01,2013-02-28 10:06:00,
2013-02-28 05:12:00,31.4,29.4,29.61,WSW,241,11.0,12.0,92,0.00,,---,0.00,0.00,VWS V14.01,2013-02-28 10:12:00,
2013-02-28 05:17:00,31.4,29.4,29.61,WSW,246,7.0,12.0,92,0.00,,---,0.00,0.00,VWS V14.01,2013-02-28 10:17:00,
2013-02-28 05:22:00,31.4,29.4,29.61,WSW,251,7.0,12.0,92,0.00,,---,0.00,0.00,VWS V14.01,2013-02-28 10:22:00,
2013-02-28 05:27:00,31.3,29.2,29.61,WSW,241,5.0,12.0,92,0.00,,---,0.00,0.00,VWS V14.01,2013-02-28 10:27:00,
2013-02-28 05:30:00,31.5,29.5,29.61,WSW,238,7.0,16.0,92,0.00,,---,0.00,0.00,VWS V14.01,2013-02-28 10:30:00,
2013-02-28 05:32:00,31.4,29.4,29.61,SW,234,5.0,12.0,92,0.00,,---,0.00,0.00,VWS V14.01,2013-02-28 10:32:00,
2013-02-28 05:37:00,31.4,29.4,29.61,West,265,5.0,12.0,92,0.00,,---,0.00,0.00,VWS V14.01,2013-02-28 10:37:00,
2013-02-28 05:42:00,31.4,29.4,29.61,WSW,240,13.0,13.0,92,0.00,,---,0.00,0.00,VWS V14.01,2013-02-28 10:42:00,
2013-02-28 05:47:00,31.4,29.6,29.61,SW,231,6.0,13.0,93,0.00,,---,0.00,0.00,VWS V14.01,2013-02-28 10:47:00,
2013-02-28 05:52:00,31.4,29.6,29.61,WSW,244,9.0,13.0,93,0.00,,---,0.00,0.00,VWS V14.01,2013-02-28 10:52:00,
2013-02-28 05:57:00,31.4,29.6,29.61,SW,228,13.0,17.0,93,0.00,,---,0.00,0.00,VWS V14.01,2013-02-28 10:57:00,
2013-02-28 06:00:00,31.5,29.2,29.61,SW,236,8.0,16.0,91,0.00,,---,0.00,0.00,VWS V14.01,2013-02-28 11:00:00,
2013-02-28 06:02:00,31.4,29.6,29.61,SW,225,10.0,13.0,93,0.00,,---,0.00,0.00,VWS V14.01,2013-02-28 11:02:00,
2013-02-28 06:07:00,31.4,29.6,29.61,WSW,238,5.0,16.0,93,0.00,,---,0.00,0.00,VWS V14.01,2013-02-28 11:07:00,
2013-02-28 06:12:00,31.5,29.5,29.61,WSW,254,12.0,16.0,92,0.00,,---,0.00,0.00,VWS V14.01,2013-02-28 11:12:00,
2013-02-28 06:17:00,31.5,29.5,29.61,SW,236,10.0,16.0,92,0.00,,---,0.00,0.00,VWS V14.01,2013-02-28 11:17:00,
2013-02-28 06:22:00,31.5,29.5,29.61,SW,225,7.0,16.0,92,0.00,,---,0.00,0.00,VWS V14.01,2013-02-28 11:22:00,
2013-02-28 06:27:00,31.5,29.5,29.61,SW,220,6.0,16.0,92,0.00,,---,0.00,0.00,VWS V14.01,2013-02-28 11:27:00,
2013-02-28 06:30:00,31.5,29.2,29.61,SW,231,8.0,14.0,91,0.00,,---,0.00,5.00,VWS V14.01,2013-02-28 11:30:00,
2013-02-28 06:32:00,31.5,29.5,29.61,WSW,239,12.0,13.0,92,0.00,,---,0.00,0.00,VWS V14.01,2013-02-28 11:32:00,
2013-02-28 06:37:00,31.5,29.5,29.61,SSW,202,12.0,16.0,92,0.00,,---,0.00,0.00,VWS V14.01,2013-02-28 11:37:00,
2013-02-28 06:42:00,31.5,29.5,29.61,WSW,247,5.0,16.0,92,0.00,,---,0.00,0.00,VWS V14.01,2013-02-28 11:42:00,
2013-02-28 06:47:00,31.5,29.5,29.61,WSW,240,12.0,16.0,92,0.00,,---,0.00,0.00,VWS V14.01,2013-02-28 11:47:00,
2013-02-28 06:52:00,31.5,29.5,29.61,WSW,248,11.0,16.0,92,0.00,,---,0.00,0.00,VWS V14.01,2013-02-28 11:52:00,
2013-02-28 06:57:00,31.5,29.2,29.61,SW,233,9.0,16.0,91,0.00,,---,0.00,0.00,VWS V14.01,2013-02-28 11:57:00,
2013-02-28 07:00:00,31.6,29.5,29.62,WSW,243,8.0,15.0,92,0.00,,---,0.00,16.00,VWS V14.01,2013-02-28 12:00:00,
2013-02-28 07:02:00,31.5,29.2,29.61,SW,223,8.0,9.0,91,0.00,,---,0.00,0.00,VWS V14.01,2013-02-28 12:02:00,
2013-02-28 07:07:00,31.5,29.2,29.61,SW,233,6.0,14.0,91,0.00,,---,0.00,0.00,VWS V14.01,2013-02-28 12:07:00,
2013-02-28 07:12:00,31.5,29.2,29.61,WSW,244,9.0,14.0,91,0.00,,---,0.00,0.00,VWS V14.01,2013-02-28 12:12:00,
2013-02-28 07:17:00,31.5,29.2,29.61,SW,234,6.0,14.0,91,0.00,,---,0.00,0.00,VWS V14.01,2013-02-28 12:17:00,
2013-02-28 07:22:00,31.5,29.2,29.61,SW,236,6.0,14.0,91,0.00,,---,0.00,5.00,VWS V14.01,2013-02-28 12:22:00,
2013-02-28 07:27:00,31.5,29.2,29.61,WSW,252,9.0,14.0,91,0.00,,---,0.00,5.00,VWS V14.01,2013-02-28 12:27:00,
2013-02-28 07:30:00,31.5,29.5,29.62,WSW,240,5.0,15.0,92,0.00,,---,0.00,42.00,VWS V14.01,2013-02-28 12:30:00,
2013-02-28 07:32:00,31.5,29.5,29.61,SW,223,10.0,15.0,92,0.00,,---,0.00,7.00,VWS V14.01,2013-02-28 12:32:00,
2013-02-28 07:37:00,31.5,29.5,29.61,WSW,248,15.0,15.0,92,0.00,,---,0.00,7.00,VWS V14.01,2013-02-28 12:37:00,
2013-02-28 07:42:00,31.5,29.5,29.62,SW,222,10.0,15.0,92,0.00,,---,0.00,9.00,VWS V14.01,2013-02-28 12:42:00,
2013-02-28 07:47:00,31.5,29.5,29.62,West,259,15.0,15.0,92,0.00,,---,0.00,11.00,VWS V14.01,2013-02-28 12:47:00,
2013-02-28 07:52:00,31.5,29.5,29.61,SW,235,5.0,15.0,92,0.00,,---,0.00,12.00,VWS V14.01,2013-02-28 12:52:00,
2013-02-28 07:57:00,31.6,29.5,29.62,SW,233,7.0,15.0,92,0.00,,---,0.00,14.00,VWS V14.01,2013-02-28 12:57:00,
2013-02-28 08:00:00,31.6,29.8,29.63,SW,232,7.0,16.0,93,0.00,,---,0.00,33.00,VWS V14.01,2013-02-28 13:00:00,
2013-02-28 08:02:00,31.5,29.5,29.62,WSW,242,7.0,14.0,92,0.00,,---,0.00,18.00,VWS V14.01,2013-02-28 13:02:00,
2013-02-28 08:08:00,31.6,29.5,29.62,SW,220,7.0,14.0,92,0.00,,---,0.00,19.00,VWS V14.01,2013-02-28 13:08:00,
2013-02-28 08:13:00,31.6,29.5,29.62,West,259,7.0,15.0,92,0.00,,---,0.00,25.00,VWS V14.01,2013-02-28 13:13:00,
2013-02-28 08:18:00,31.6,29.5,29.62,SW,229,9.0,15.0,92,0.00,,---,0.00,23.00,VWS V14.01,2013-02-28 13:18:00,
2013-02-28 08:23:00,31.6,29.5,29.62,WSW,238,9.0,15.0,92,0.00,,---,0.00,28.00,VWS V14.01,2013-02-28 13:23:00,
2013-02-28 08:28:00,31.6,29.5,29.62,WSW,243,8.0,15.0,92,0.00,,---,0.00,39.00,VWS V14.01,2013-02-28 13:28:00,
2013-02-28 08:30:00,31.7,29.9,29.63,SW,233,6.0,14.0,93,0.00,,---,0.00,35.00,VWS V14.01,2013-02-28 13:30:00,
2013-02-28 08:33:00,31.6,29.5,29.63,WSW,247,7.0,9.0,92,0.00,,---,0.00,35.00,VWS V14.01,2013-02-28 13:33:00,
2013-02-28 08:38:00,31.6,29.5,29.63,SW,231,5.0,16.0,92,0.00,,---,0.00,28.00,VWS V14.01,2013-02-28 13:38:00,
2013-02-28 08:43:00,31.6,29.5,29.63,WSW,245,7.0,16.0,92,0.00,,---,0.00,30.00,VWS V14.01,2013-02-28 13:43:00,
2013-02-28 08:48:00,31.6,29.5,29.63,WSW,250,5.0,16.0,92,0.00,,---,0.00,28.00,VWS V14.01,2013-02-28 13:48:00,
2013-02-28 08:53:00,31.6,29.5,29.63,WSW,244,11.0,16.0,92,0.00,,---,0.00,37.00,VWS V14.01,2013-02-28 13:53:00,
2013-02-28 08:58:00,31.6,29.8,29.63,WSW,248,11.0,16.0,93,0.00,,---,0.00,40.00,VWS V14.01,2013-02-28 13:58:00,
2013-02-28 09:00:00,32.0,30.2,29.64,WSW,250,8.0,15.0,93,0.00,,---,0.00,35.00,VWS V14.01,2013-02-28 14:00:00,
2013-02-28 09:03:00,31.6,29.8,29.63,SW,222,5.0,11.0,93,0.00,,---,0.00,33.00,VWS V14.01,2013-02-28 14:03:00,
2013-02-28 09:08:00,31.7,29.9,29.63,WSW,240,10.0,13.0,93,0.00,,---,0.00,35.00,VWS V14.01,2013-02-28 14:08:00,
2013-02-28 09:13:00,31.7,29.9,29.63,WSW,248,10.0,14.0,93,0.00,,---,0.00,37.00,VWS V14.01,2013-02-28 14:13:00,
2013-02-28 09:18:00,31.7,29.9,29.63,WSW,238,7.0,14.0,93,0.00,,---,0.00,33.00,VWS V14.01,2013-02-28 14:18:00,
2013-02-28 09:23:00,31.7,29.9,29.63,WSW,242,5.0,14.0,93,0.00,,---,0.00,30.00,VWS V14.01,2013-02-28 14:23:00,
2013-02-28 09:28:00,31.7,29.9,29.63,SW,229,5.0,14.0,93,0.00,,---,0.00,37.00,VWS V14.01,2013-02-28 14:28:00,
2013-02-28 09:30:00,32.1,30.3,29.64,WSW,252,13.0,15.0,93,0.00,,---,0.00,58.00,VWS V14.01,2013-02-28 14:30:00,
2013-02-28 09:33:00,31.7,29.9,29.63,WSW,245,9.0,12.0,93,0.00,,---,0.00,33.00,VWS V14.01,2013-02-28 14:33:00,
2013-02-28 09:38:00,31.8,30.0,29.64,WSW,249,14.0,15.0,93,0.00,,---,0.00,30.00,VWS V14.01,2013-02-28 14:38:00,
2013-02-28 09:43:00,31.8,30.0,29.64,WSW,248,10.0,15.0,93,0.00,,---,0.00,35.00,VWS V14.01,2013-02-28 14:43:00,
2013-02-28 09:48:00,31.9,30.1,29.63,SW,235,9.0,15.0,93,0.00,,---,0.00,35.00,VWS V14.01,2013-02-28 14:48:00,
2013-02-28 09:53:00,31.9,30.1,29.64,WSW,246,5.0,15.0,93,0.00,,---,0.00,40.00,VWS V14.01,2013-02-28 14:53:00,
2013-02-28 09:58:00,31.9,30.1,29.64,WSW,244,3.0,15.0,93,0.00,,---,0.00,37.00,VWS V14.01,2013-02-28 14:58:00,
2013-02-28 10:00:00,32.4,30.9,29.65,SW,228,11.0,14.0,94,0.00,,---,0.00,185.00,VWS V14.01,2013-02-28 15:00:00,
2013-02-28 10:03:00,32.0,30.2,29.64,SW,231,10.0,15.0,93,0.00,,---,0.00,46.00,VWS V14.01,2013-02-28 15:03:00,
2013-02-28 10:08:00,32.0,30.2,29.64,WSW,248,8.0,15.0,93,0.00,,---,0.00,47.00,VWS V14.01,2013-02-28 15:08:00,
2013-02-28 10:14:00,32.0,30.2,29.64,WSW,239,9.0,15.0,93,0.00,,---,0.00,49.00,VWS V14.01,2013-02-28 15:14:00,
2013-02-28 10:19:00,32.1,30.3,29.64,WSW,241,9.0,15.0,93,0.00,,---,0.00,46.00,VWS V14.01,2013-02-28 15:19:00,
2013-02-28 10:24:00,32.1,30.3,29.64,WSW,242,6.0,15.0,93,0.00,,---,0.00,47.00,VWS V14.01,2013-02-28 15:24:00,
2013-02-28 10:29:00,32.1,30.3,29.64,SW,232,5.0,15.0,93,0.00,,---,0.00,63.00,VWS V14.01,2013-02-28 15:29:00,
2013-02-28 10:30:00,33.2,31.7,29.65,WSW,239,7.0,15.0,94,0.01,,---,0.01,253.00,VWS V14.01,2013-02-28 15:30:00,
2013-02-28 10:34:00,32.1,30.3,29.64,WSW,242,10.0,14.0,93,0.00,,---,0.00,53.00,VWS V14.01,2013-02-28 15:34:00,
2013-02-28 10:39:00,32.1,30.3,29.64,WSW,253,7.0,14.0,93,0.00,,---,0.00,67.00,VWS V14.01,2013-02-28 15:39:00,
2013-02-28 10:44:00,32.1,30.3,29.64,West,260,5.0,14.0,93,0.00,,---,0.00,88.00,VWS V14.01,2013-02-28 15:44:00,
2013-02-28 10:49:00,32.2,30.4,29.64,WSW,246,11.0,14.0,93,0.00,,---,0.00,130.00,VWS V14.01,2013-02-28 15:49:00,
2013-02-28 10:54:00,32.3,30.8,29.64,WSW,251,6.0,14.0,94,0.00,,---,0.00,151.00,VWS V14.01,2013-02-28 15:54:00,
2013-02-28 10:59:00,32.3,30.8,29.65,West,259,11.0,14.0,94,0.00,,---,0.00,176.00,VWS V14.01,2013-02-28 15:59:00,
2013-02-28 11:00:00,34.0,32.5,29.66,West,273,11.0,16.0,94,0.01,,---,0.01,195.00,VWS V14.01,2013-02-28 16:00:00,
2013-02-28 11:04:00,32.5,31.0,29.65,WSW,246,10.0,12.0,94,0.00,,---,0.00,172.00,VWS V14.01,2013-02-28 16:04:00,
2013-02-28 11:09:00,32.6,31.1,29.65,SW,236,8.0,13.0,94,0.00,,---,0.00,209.00,VWS V14.01,2013-02-28 16:09:00,
2013-02-28 11:14:00,32.8,31.3,29.65,WSW,252,7.0,13.0,94,0.00,,---,0.00,295.00,VWS V14.01,2013-02-28 16:14:00,
2013-02-28 11:19:00,33.0,31.5,29.65,WSW,246,4.0,14.0,94,0.00,,---,0.00,223.00,VWS V14.01,2013-02-28 16:19:00,
2013-02-28 11:24:00,33.1,31.6,29.65,WSW,240,6.0,14.0,94,0.00,,---,0.00,202.00,VWS V14.01,2013-02-28 16:24:00,
2013-02-28 11:29:00,33.2,31.7,29.65,WSW,250,6.0,15.0,94,0.01,,---,0.01,278.00,VWS V14.01,2013-02-28 16:29:00,
2013-02-28 11:30:00,34.9,33.3,29.66,WSW,246,7.0,16.0,94,0.01,,---,0.01,260.00,VWS V14.01,2013-02-28 16:30:00,
2013-02-28 11:34:00,33.3,31.8,29.65,SW,236,6.0,14.0,94,0.01,,---,0.01,253.00,VWS V14.01,2013-02-28 16:34:00,
2013-02-28 11:39:00,33.5,32.0,29.65,WSW,254,10.0,14.0,94,0.01,,---,0.01,250.00,VWS V14.01,2013-02-28 16:39:00,
2013-02-28 11:44:00,33.7,32.2,29.65,West,262,10.0,16.0,94,0.01,,---,0.01,237.00,VWS V14.01,2013-02-28 16:44:00,
2013-02-28 11:49:00,33.8,32.3,29.65,WSW,246,9.0,16.0,94,0.01,,---,0.01,186.00,VWS V14.01,2013-02-28 16:49:00,
2013-02-28 11:54:00,33.9,32.4,29.65,WSW,248,12.0,16.0,94,0.01,,---,0.01,199.00,VWS V14.01,2013-02-28 16:54:00,
2013-02-28 11:59:00,34.0,32.5,29.66,WSW,248,9.0,16.0,94,0.01,,---,0.01,216.00,VWS V14.01,2013-02-28 16:59:00,
2013-02-28 12:00:00,36.0,34.4,29.66,WSW,254,10.0,18.0,94,0.00,,---,0.01,151.00,VWS V14.01,2013-02-28 17:00:00,
2013-02-28 12:04:00,34.1,32.6,29.66,West,265,11.0,16.0,94,0.01,,---,0.01,172.00,VWS V14.01,2013-02-28 17:04:00,
2013-02-28 12:09:00,34.2,32.7,29.66,WSW,246,11.0,16.0,94,0.01,,---,0.01,230.00,VWS V14.01,2013-02-28 17:09:00,
2013-02-28 12:14:00,34.4,32.9,29.66,SW,236,13.0,16.0,94,0.01,,---,0.01,206.00,VWS V14.01,2013-02-28 17:14:00,
2013-02-28 12:19:00,34.6,33.0,29.66,WSW,245,9.0,16.0,94,0.01,,---,0.01,236.00,VWS V14.01,2013-02-28 17:19:00,
2013-02-28 12:24:00,34.8,33.2,29.66,WSW,246,15.0,16.0,94,0.01,,---,0.01,190.00,VWS V14.01,2013-02-28 17:24:00,
2013-02-28 12:29:00,34.8,33.2,29.66,WSW,250,12.0,16.0,94,0.01,,---,0.01,255.00,VWS V14.01,2013-02-28 17:29:00,
2013-02-28 12:30:00,35.8,33.7,29.67,West,279,11.0,16.0,92,0.00,,---,0.01,72.00,VWS V14.01,2013-02-28 17:30:00,
2013-02-28 12:34:00,35.0,33.5,29.66,WSW,256,9.0,15.0,94,0.00,,---,0.01,339.00,VWS V14.01,2013-02-28 17:34:00,
2013-02-28 12:39:00,35.1,33.5,29.66,WSW,253,11.0,18.0,94,0.00,,---,0.01,424.00,VWS V14.01,2013-02-28 17:39:00,
2013-02-28 12:44:00,35.4,33.8,29.66,West,263,11.0,18.0,94,0.00,,---,0.01,292.00,VWS V14.01,2013-02-28 17:44:00,
2013-02-28 12:49:00,35.6,34.0,29.66,WSW,248,9.0,18.0,94,0.00,,---,0.01,274.00,VWS V14.01,2013-02-28 17:49:00,
2013-02-28 12:54:00,35.8,34.2,29.65,WSW,247,8.0,18.0,94,0.00,,---,0.01,295.00,VWS V14.01,2013-02-28 17:54:00,
2013-02-28 12:59:00,36.0,34.4,29.66,WSW,254,11.0,18.0,94,0.00,,---,0.01,165.00,VWS V14.01,2013-02-28 17:59:00,
2013-02-28 13:00:00,35.7,33.3,29.67,West,269,6.0,17.0,91,0.00,,---,0.01,63.00,VWS V14.01,2013-02-28 18:00:00,
2013-02-28 13:05:00,35.9,34.1,29.66,WSW,254,11.0,16.0,93,0.00,,---,0.01,109.00,VWS V14.01,2013-02-28 18:05:00,
2013-02-28 13:10:00,35.7,33.9,29.66,WSW,252,6.0,16.0,93,0.00,,---,0.01,156.00,VWS V14.01,2013-02-28 18:10:00,
2013-02-28 13:15:00,35.8,34.0,29.66,West,269,4.0,16.0,93,0.00,,---,0.01,156.00,VWS V14.01,2013-02-28 18:15:00,
2013-02-28 13:20:00,35.9,34.1,29.66,West,268,7.0,16.0,93,0.00,,---,0.01,135.00,VWS V14.01,2013-02-28 18:20:00,
2013-02-28 13:25:00,35.9,34.1,29.66,WSW,248,7.0,16.0,93,0.00,,---,0.01,105.00,VWS V14.01,2013-02-28 18:25:00,
2013-02-28 13:30:00,35.8,33.7,29.67,West,259,10.0,16.0,92,0.00,,---,0.01,72.00,VWS V14.01,2013-02-28 18:30:00,
2013-02-28 13:35:00,35.8,33.7,29.67,WSW,250,9.0,15.0,92,0.00,,---,0.01,93.00,VWS V14.01,2013-02-28 18:35:00,
2013-02-28 13:40:00,35.7,33.6,29.67,West,271,6.0,17.0,92,0.00,,---,0.01,83.00,VWS V14.01,2013-02-28 18:40:00,
2013-02-28 13:45:00,35.8,33.7,29.67,West,276,3.0,17.0,92,0.00,,---,0.01,93.00,VWS V14.01,2013-02-28 18:45:00,
2013-02-28 13:50:00,35.8,33.4,29.67,NW,307,3.0,17.0,91,0.00,,---,0.01,83.00,VWS V14.01,2013-02-28 18:50:00,
2013-02-28 13:55:00,35.8,33.4,29.67,West,267,6.0,17.0,91,0.00,,---,0.01,79.00,VWS V14.01,2013-02-28 18:55:00,
2013-02-28 14:00:00,35.7,33.3,29.67,West,269,6.0,17.0,91,0.00,,---,0.01,63.00,VWS V14.01,2013-02-28 19:00:00,
2013-02-28 14:05:00,35.7,33.3,29.67,WNW,291,3.0,12.0,91,0.00,,---,0.01,70.00,VWS V14.01,2013-02-28 19:05:00,
2013-02-28 14:10:00,35.7,33.3,29.67,West,263,7.0,13.0,91,0.00,,---,0.01,69.00,VWS V14.01,2013-02-28 19:10:00,
2013-02-28 14:15:00,35.7,33.3,29.68,NW,319,7.0,13.0,91,0.00,,---,0.01,72.00,VWS V14.01,2013-02-28 19:15:00,
2013-02-28 14:20:00,35.7,33.1,29.68,West,273,9.0,13.0,90,0.00,,---,0.01,54.00,VWS V14.01,2013-02-28 19:20:00,
2013-02-28 14:25:00,35.7,33.1,29.68,WNW,298,6.0,15.0,90,0.00,,---,0.01,42.00,VWS V14.01,2013-02-28 19:25:00,
2013-02-28 14:30:00,35.6,32.7,29.68,WNW,290,9.0,9.0,89,0.00,,---,0.01,46.00,VWS V14.01,2013-02-28 19:30:00,
2013-02-28 14:35:00,35.5,32.6,29.68,WNW,298,6.0,15.0,89,0.00,,---,0.01,40.00,VWS V14.01,2013-02-28 19:35:00,
2013-02-28 14:40:00,35.5,32.6,29.68,WNW,300,5.0,15.0,89,0.00,,---,0.01,58.00,VWS V14.01,2013-02-28 19:40:00,
2013-02-28 14:45:00,35.5,32.6,29.68,West,269,2.0,16.0,89,0.00,,---,0.01,47.00,VWS V14.01,2013-02-28 19:45:00,
2013-02-28 14:50:00,35.5,32.6,29.69,WNW,298,10.0,16.0,89,0.00,,---,0.01,42.00,VWS V14.01,2013-02-28 19:50:00,
2013-02-28 14:55:00,35.5,32.6,29.69,WNW,295,6.0,16.0,89,0.00,,---,0.01,46.00,VWS V14.01,2013-02-28 19:55:00,
2013-02-28 15:00:00,35.5,32.6,29.69,WNW,300,5.0,6.0,89,0.00,,---,0.01,42.00,VWS V14.01,2013-02-28 20:00:00,
2013-02-28 15:05:00,35.4,32.5,29.70,West,277,9.0,13.0,89,0.00,,---,0.01,42.00,VWS V14.01,2013-02-28 20:05:00,
2013-02-28 15:11:00,35.4,32.5,29.70,WNW,295,10.0,13.0,89,0.00,,---,0.01,35.00,VWS V14.01,2013-02-28 20:11:00,
2013-02-28 15:16:00,35.3,32.4,29.70,WNW,301,6.0,13.0,89,0.00,,---,0.01,47.00,VWS V14.01,2013-02-28 20:16:00,
2013-02-28 15:21:00,35.4,32.5,29.70,WNW,287,7.0,13.0,89,0.00,,---,0.01,58.00,VWS V14.01,2013-02-28 20:21:00,
2013-02-28 15:26:00,35.4,32.5,29.70,WNW,300,4.0,13.0,89,0.00,,---,0.01,60.00,VWS V14.01,2013-02-28 20:26:00,
2013-02-28 15:30:00,35.3,32.7,29.73,West,276,3.0,11.0,90,0.00,,---,0.01,21.00,VWS V14.01,2013-02-28 20:30:00,
2013-02-28 15:31:00,35.5,32.6,29.70,WNW,298,7.0,7.0,89,0.00,,---,0.01,123.00,VWS V14.01,2013-02-28 20:31:00,
2013-02-28 15:36:00,35.6,32.7,29.70,West,267,3.0,12.0,89,0.00,,---,0.01,105.00,VWS V14.01,2013-02-28 20:36:00,
2013-02-28 15:41:00,35.7,32.8,29.70,WNW,284,4.0,15.0,89,0.00,,---,0.01,158.00,VWS V14.01,2013-02-28 20:41:00,
2013-02-28 15:46:00,35.8,32.9,29.71,WNW,300,3.0,15.0,89,0.00,,---,0.01,107.00,VWS V14.01,2013-02-28 20:46:00,
2013-02-28 15:51:00,35.9,33.0,29.71,West,273,6.0,15.0,89,0.00,,---,0.01,74.00,VWS V14.01,2013-02-28 20:51:00,
2013-02-28 15:56:00,36.0,33.1,29.71,West,279,9.0,15.0,89,0.00,,---,0.01,54.00,VWS V14.01,2013-02-28 20:56:00,
2013-02-28 16:00:00,33.5,31.4,29.74,West,275,1.0,7.0,92,0.01,,---,0.02,58.00,VWS V14.01,2013-02-28 21:00:00,
2013-02-28 16:01:00,36.0,33.1,29.71,WNW,290,4.0,4.0,89,0.00,,---,0.01,53.00,VWS V14.01,2013-02-28 21:01:00,
2013-02-28 16:06:00,36.0,33.1,29.71,West,261,4.0,7.0,89,0.00,,---,0.01,37.00,VWS V14.01,2013-02-28 21:06:00,
2013-02-28 16:11:00,35.9,33.0,29.71,WNW,298,5.0,9.0,89,0.00,,---,0.01,37.00,VWS V14.01,2013-02-28 21:11:00,
2013-02-28 16:16:00,35.8,32.9,29.72,West,276,2.0,11.0,89,0.00,,---,0.01,58.00,VWS V14.01,2013-02-28 21:16:00,
2013-02-28 16:21:00,35.7,33.1,29.72,WNW,294,6.0,11.0,90,0.00,,---,0.01,56.00,VWS V14.01,2013-02-28 21:21:00,
2013-02-28 16:26:00,35.6,33.0,29.72,WNW,293,3.0,11.0,90,0.00,,---,0.01,30.00,VWS V14.01,2013-02-28 21:26:00,
2013-02-28 16:30:00,33.9,32.1,29.76,West,259,4.0,8.0,93,0.02,,---,0.03,26.00,VWS V14.01,2013-02-28 21:30:00,
2013-02-28 16:31:00,35.2,32.6,29.73,West,279,2.0,5.0,90,0.00,,---,0.01,21.00,VWS V14.01,2013-02-28 21:31:00,
2013-02-28 16:36:00,34.7,32.1,29.73,WNW,293,1.0,5.0,90,0.00,,---,0.01,25.00,VWS V14.01,2013-02-28 21:36:00,
2013-02-28 16:41:00,34.4,31.8,29.73,West,281,4.0,5.0,90,0.01,,---,0.02,23.00,VWS V14.01,2013-02-28 21:41:00,
2013-02-28 16:46:00,34.1,31.8,29.74,WNW,285,1.0,5.0,91,0.01,,---,0.02,37.00,VWS V14.01,2013-02-28 21:46:00,
2013-02-28 16:51:00,33.8,31.5,29.74,West,274,2.0,7.0,91,0.01,,---,0.02,32.00,VWS V14.01,2013-02-28 21:51:00,
2013-02-28 16:56:00,33.6,31.3,29.74,West,275,2.0,7.0,91,0.01,,---,0.02,67.00,VWS V14.01,2013-02-28 21:56:00,
2013-02-28 17:00:00,34.4,32.9,29.78,WNW,286,3.0,10.0,94,0.03,,---,0.04,7.00,VWS V14.01,2013-02-28 22:00:00,
2013-02-28 17:01:00,33.5,31.4,29.74,West,275,3.0,3.0,92,0.01,,---,0.02,58.00,VWS V14.01,2013-02-28 22:01:00,
2013-02-28 17:06:00,33.5,31.4,29.75,West,275,2.0,4.0,92,0.02,,---,0.03,44.00,VWS V14.01,2013-02-28 22:06:00,
2013-02-28 17:11:00,33.5,31.4,29.75,West,275,3.0,4.0,92,0.02,,---,0.03,42.00,VWS V14.01,2013-02-28 22:11:00,
2013-02-28 17:16:00,33.5,31.7,29.75,West,273,1.0,4.0,93,0.02,,---,0.03,37.00,VWS V14.01,2013-02-28 22:16:00,
2013-02-28 17:21:00,33.7,31.9,29.75,West,263,4.0,5.0,93,0.02,,---,0.03,33.00,VWS V14.01,2013-02-28 22:21:00,
2013-02-28 17:26:00,33.8,32.0,29.75,West,275,2.0,7.0,93,0.02,,---,0.03,33.00,VWS V14.01,2013-02-28 22:26:00,
2013-02-28 17:30:00,34.5,33.0,29.79,West,278,4.0,9.0,94,0.02,,---,0.04,0.00,VWS V14.01,2013-02-28 22:30:00,
2013-02-28 17:31:00,33.9,32.1,29.76,West,270,3.0,4.0,93,0.02,,---,0.03,28.00,VWS V14.01,2013-02-28 22:31:00,
2013-02-28 17:36:00,34.1,32.3,29.76,West,274,4.0,7.0,93,0.03,,---,0.04,25.00,VWS V14.01,2013-02-28 22:36:00,
2013-02-28 17:41:00,34.2,32.7,29.76,WNW,283,3.0,10.0,94,0.03,,---,0.04,21.00,VWS V14.01,2013-02-28 22:41:00,
2013-02-28 17:46:00,34.3,32.8,29.77,WNW,288,4.0,10.0,94,0.03,,---,0.04,14.00,VWS V14.01,2013-02-28 22:46:00,
2013-02-28 17:51:00,34.4,32.9,29.77,WNW,292,5.0,10.0,94,0.03,,---,0.04,11.00,VWS V14.01,2013-02-28 22:51:00,
2013-02-28 17:56:00,34.4,32.9,29.77,West,267,3.0,10.0,94,0.03,,---,0.04,7.00,VWS V14.01,2013-02-28 22:56:00,
2013-02-28 18:00:00,34.5,33.0,29.80,NW,304,1.0,5.0,94,0.01,,---,0.04,0.00,VWS V14.01,2013-02-28 23:00:00,
2013-02-28 18:01:00,34.4,32.9,29.78,WNW,285,3.0,5.0,94,0.02,,---,0.04,7.00,VWS V14.01,2013-02-28 23:01:00,
2013-02-28 18:06:00,34.5,33.0,29.78,WNW,286,3.0,9.0,94,0.02,,---,0.04,0.00,VWS V14.01,2013-02-28 23:06:00,
2013-02-28 18:11:00,34.5,33.0,29.78,WNW,286,4.0,9.0,94,0.02,,---,0.04,0.00,VWS V14.01,2013-02-28 23:11:00,
2013-02-28 18:16:00,34.5,33.0,29.78,West,269,2.0,9.0,94,0.02,,---,0.04,0.00,VWS V14.01,2013-02-28 23:16:00,
2013-02-28 18:21:00,34.4,32.9,29.78,West,259,4.0,9.0,94,0.02,,---,0.04,0.00,VWS V14.01,2013-02-28 23:21:00,
2013-02-28 18:26:00,34.5,33.0,29.79,West,268,3.0,9.0,94,0.02,,---,0.04,0.00,VWS V14.01,2013-02-28 23:26:00,
2013-02-28 18:30:00,34.4,32.9,29.82,NW,304,4.0,11.0,94,0.00,,---,0.04,0.00,VWS V14.01,2013-02-28 23:30:00,
2013-02-28 18:31:00,34.4,32.9,29.79,West,275,1.0,4.0,94,0.01,,---,0.04,0.00,VWS V14.01,2013-02-28 23:31:00,
2013-02-28 18:36:00,34.4,32.9,29.79,West,277,0.0,4.0,94,0.01,,---,0.04,0.00,VWS V14.01,2013-02-28 23:36:00,
2013-02-28 18:41:00,34.4,32.9,29.80,West,277,2.0,4.0,94,0.01,,---,0.04,0.00,VWS V14.01,2013-02-28 23:41:00,
2013-02-28 18:46:00,34.4,32.9,29.80,WNW,286,0.0,4.0,94,0.01,,---,0.04,0.00,VWS V14.01,2013-02-28 23:46:00,
2013-02-28 18:51:00,34.5,33.0,29.80,WNW,294,1.0,5.0,94,0.01,,---,0.04,0.00,VWS V14.01,2013-02-28 23:51:00,
2013-02-28 18:56:00,34.5,33.0,29.80,WNW,292,2.0,5.0,94,0.01,,---,0.04,0.00,VWS V14.01,2013-02-28 23:56:00,
2013-02-28 19:00:00,34.0,32.5,29.83,WNW,293,1.0,6.0,94,0.00,,---,0.04,0.00,VWS V14.01,2013-03-01 00:00:00,
2013-02-28 19:01:00,34.5,33.0,29.80,WNW,298,2.0,4.0,94,0.00,,---,0.04,0.00,VWS V14.01,2013-03-01 00:01:00,
2013-02-28 19:07:00,34.4,32.9,29.81,WNW,296,4.0,7.0,94,0.00,,---,0.04,0.00,VWS V14.01,2013-03-01 00:07:00,
2013-02-28 19:12:00,34.4,32.9,29.81,WNW,284,3.0,7.0,94,0.00,,---,0.04,0.00,VWS V14.01,2013-03-01 00:12:00,
2013-02-28 19:17:00,34.4,32.9,29.81,WNW,286,4.0,11.0,94,0.00,,---,0.04,0.00,VWS V14.01,2013-03-01 00:17:00,
2013-02-28 19:22:00,34.4,32.9,29.82,NW,305,5.0,11.0,94,0.00,,---,0.04,0.00,VWS V14.01,2013-03-01 00:22:00,
2013-02-28 19:27:00,34.4,32.9,29.82,WNW,301,3.0,11.0,94,0.00,,---,0.04,0.00,VWS V14.01,2013-03-01 00:27:00,
2013-02-28 19:30:00,33.7,32.2,29.83,WNW,294,1.0,4.0,94,0.00,,---,0.04,0.00,VWS V14.01,2013-03-01 00:30:00,
2013-02-28 19:32:00,34.4,32.9,29.82,NW,317,3.0,6.0,94,0.00,,---,0.04,0.00,VWS V14.01,2013-03-01 00:32:00,
2013-02-28 19:37:00,34.3,32.8,29.82,NW,307,3.0,6.0,94,0.00,,---,0.04,0.00,VWS V14.01,2013-03-01 00:37:00,
2013-02-28 19:42:00,34.3,32.8,29.83,WNW,302,1.0,6.0,94,0.00,,---,0.04,0.00,VWS V14.01,2013-03-01 00:42:00,
2013-02-28 19:47:00,34.2,32.7,29.83,WNW,295,1.0,6.0,94,0.00,,---,0.04,0.00,VWS V14.01,2013-03-01 00:47:00,
2013-02-28 19:52:00,34.1,32.6,29.83,WNW,293,2.0,6.0,94,0.00,,---,0.04,0.00,VWS V14.01,2013-03-01 00:52:00,
2013-02-28 19:57:00,34.1,32.6,29.83,WNW,293,1.0,6.0,94,0.00,,---,0.04,0.00,VWS V14.01,2013-03-01 00:57:00,
2013-02-28 20:00:00,33.5,32.0,29.84,NW,318,1.0,6.0,94,0.00,,---,0.04,0.00,VWS V14.01,2013-03-01 01:00:00,
2013-02-28 20:02:00,34.0,32.5,29.83,WNW,293,0.0,2.0,94,0.00,,---,0.04,0.00,VWS V14.01,2013-03-01 01:02:00,
2013-02-28 20:07:00,33.9,32.4,29.83,WNW,293,1.0,2.0,94,0.00,,---,0.04,0.00,VWS V14.01,2013-03-01 01:07:00,
2013-02-28 20:12:00,33.8,32.3,29.83,WNW,293,0.0,3.0,94,0.00,,---,0.04,0.00,VWS V14.01,2013-03-01 01:12:00,
2013-02-28 20:17:00,33.8,32.3,29.83,WNW,294,1.0,4.0,94,0.00,,---,0.04,0.00,VWS V14.01,2013-03-01 01:17:00,
2013-02-28 20:22:00,33.7,32.2,29.83,WNW,294,0.0,4.0,94,0.00,,---,0.04,0.00,VWS V14.01,2013-03-01 01:22:00,
2013-02-28 20:27:00,33.7,32.2,29.83,WNW,294,1.0,4.0,94,0.00,,---,0.04,0.00,VWS V14.01,2013-03-01 01:27:00,
2013-02-28 20:30:00,33.4,31.9,29.85,NW,325,1.0,7.0,94,0.00,,---,0.04,0.00,VWS V14.01,2013-03-01 01:30:00,
2013-02-28 20:32:00,33.6,32.1,29.83,WNW,294,1.0,3.0,94,0.00,,---,0.04,0.00,VWS V14.01,2013-03-01 01:32:00,
2013-02-28 20:37:00,33.7,32.2,29.83,NW,304,4.0,4.0,94,0.00,,---,0.04,0.00,VWS V14.01,2013-03-01 01:37:00,
2013-02-28 20:42:00,33.6,32.1,29.83,WNW,302,3.0,5.0,94,0.00,,---,0.04,0.00,VWS V14.01,2013-03-01 01:42:00,
2013-02-28 20:47:00,33.6,32.1,29.84,WNW,303,5.0,5.0,94,0.00,,---,0.04,0.00,VWS V14.01,2013-03-01 01:47:00,
2013-02-28 20:52:00,33.6,32.1,29.84,NW,321,2.0,6.0,94,0.00,,---,0.04,0.00,VWS V14.01,2013-03-01 01:52:00,
2013-02-28 20:57:00,33.6,32.1,29.84,NW,318,2.0,6.0,94,0.00,,---,0.04,0.00,VWS V14.01,2013-03-01 01:57:00,
2013-02-28 21:00:00,33.3,31.8,29.85,NNW,346,7.0,13.0,94,0.00,,---,0.04,0.00,VWS V14.01,2013-03-01 02:00:00,
2013-02-28 21:02:00,33.5,32.0,29.84,NW,319,3.0,4.0,94,0.00,,---,0.04,0.00,VWS V14.01,2013-03-01 02:02:00,
2013-02-28 21:07:00,33.5,32.0,29.84,NNW,336,5.0,5.0,94,0.00,,---,0.04,0.00,VWS V14.01,2013-03-01 02:07:00,
2013-02-28 21:12:00,33.5,32.0,29.84,NW,321,4.0,5.0,94,0.00,,---,0.04,0.00,VWS V14.01,2013-03-01 02:12:00,
2013-02-28 21:17:00,33.5,32.0,29.84,NNW,333,1.0,6.0,94,0.00,,---,0.04,0.00,VWS V14.01,2013-03-01 02:17:00,
2013-02-28 21:22:00,33.5,32.0,29.84,NNW,328,3.0,6.0,94,0.00,,---,0.04,0.00,VWS V14.01,2013-03-01 02:22:00,
2013-02-28 21:27:00,33.4,31.9,29.84,NNW,329,4.0,6.0,94,0.00,,---,0.04,0.00,VWS V14.01,2013-03-01 02:27:00,
2013-02-28 21:30:00,33.2,31.4,29.86,NNW,340,1.0,11.0,93,0.00,,---,0.04,0.00,VWS V14.01,2013-03-01 02:30:00,
2013-02-28 21:32:00,33.4,31.9,29.85,NW,323,0.0,5.0,94,0.00,,---,0.04,0.00,VWS V14.01,2013-03-01 02:32:00,
2013-02-28 21:37:00,33.4,31.9,29.85,NW,323,2.0,5.0,94,0.00,,---,0.04,0.00,VWS V14.01,2013-03-01 02:37:00,
2013-02-28 21:42:00,33.4,31.9,29.85,NNW,343,2.0,6.0,94,0.00,,---,0.04,0.00,VWS V14.01,2013-03-01 02:42:00,
2013-02-28 21:47:00,33.4,31.9,29.85,NW,326,3.0,7.0,94,0.00,,---,0.04,0.00,VWS V14.01,2013-03-01 02:47:00,
2013-02-28 21:52:00,33.3,31.8,29.85,NW,319,6.0,13.0,94,0.00,,---,0.04,0.00,VWS V14.01,2013-03-01 02:52:00,
2013-02-28 21:57:00,33.3,31.8,29.85,NNW,328,4.0,13.0,94,0.00,,---,0.04,0.00,VWS V14.01,2013-03-01 02:57:00,
2013-02-28 22:00:00,33.0,30.9,29.86,NW,319,2.0,7.0,92,0.00,,---,0.04,0.00,VWS V14.01,2013-03-01 03:00:00,
2013-02-28 22:02:00,33.3,31.8,29.85,NNW,340,5.0,10.0,94,0.00,,---,0.04,0.00,VWS V14.01,2013-03-01 03:02:00,
2013-02-28 22:07:00,33.3,31.8,29.85,North,350,6.0,10.0,94,0.00,,---,0.04,0.00,VWS V14.01,2013-03-01 03:07:00,
2013-02-28 22:12:00,33.3,31.8,29.85,NNW,331,1.0,10.0,94,0.00,,---,0.04,0.00,VWS V14.01,2013-03-01 03:12:00,
2013-02-28 22:17:00,33.3,31.5,29.85,NNW,327,3.0,11.0,93,0.00,,---,0.04,0.00,VWS V14.01,2013-03-01 03:17:00,
2013-02-28 22:22:00,33.2,31.4,29.85,NNW,329,4.0,11.0,93,0.00,,---,0.04,0.00,VWS V14.01,2013-03-01 03:22:00,
2013-02-28 22:27:00,33.2,31.4,29.86,NNW,340,3.0,11.0,93,0.00,,---,0.04,0.00,VWS V14.01,2013-03-01 03:27:00,
2013-02-28 22:30:00,32.9,30.6,29.85,NW,322,2.0,6.0,91,0.00,,---,0.04,0.00,VWS V14.01,2013-03-01 03:30:00,
2013-02-28 22:32:00,33.1,31.3,29.86,NNW,348,1.0,5.0,93,0.00,,---,0.04,0.00,VWS V14.01,2013-03-01 03:32:00,
2013-02-28 22:37:00,33.1,31.3,29.86,NW,323,3.0,7.0,93,0.00,,---,0.04,0.00,VWS V14.01,2013-03-01 03:37:00,
2013-02-28 22:42:00,33.1,31.3,29.86,NNW,348,3.0,7.0,93,0.00,,---,0.04,0.00,VWS V14.01,2013-03-01 03:42:00,
2013-02-28 22:47:00,33.0,31.2,29.86,NNW,329,2.0,7.0,93,0.00,,---,0.04,0.00,VWS V14.01,2013-03-01 03:47:00,
2013-02-28 22:52:00,33.0,30.9,29.86,NW,321,2.0,7.0,92,0.00,,---,0.04,0.00,VWS V14.01,2013-03-01 03:52:00,
2013-02-28 22:57:00,33.0,30.9,29.86,NNW,334,4.0,7.0,92,0.00,,---,0.04,0.00,VWS V14.01,2013-03-01 03:57:00,
2013-02-28 23:00:00,32.8,30.5,29.86,NNW,338,3.0,5.0,91,0.00,,---,0.04,0.00,VWS V14.01,2013-03-01 04:00:00,
2013-02-28 23:02:00,33.0,30.9,29.85,NW,311,3.0,6.0,92,0.00,,---,0.04,0.00,VWS V14.01,2013-03-01 04:02:00,
2013-02-28 23:07:00,33.0,30.9,29.86,NW,315,1.0,6.0,92,0.00,,---,0.04,0.00,VWS V14.01,2013-03-01 04:07:00,
2013-02-28 23:12:00,32.9,30.8,29.85,NW,315,2.0,6.0,92,0.00,,---,0.04,0.00,VWS V14.01,2013-03-01 04:12:00,
2013-02-28 23:17:00,33.0,30.9,29.85,NNW,328,1.0,6.0,92,0.00,,---,0.04,0.00,VWS V14.01,2013-03-01 04:17:00,
2013-02-28 23:22:00,32.9,30.6,29.85,NW,315,1.0,6.0,91,0.00,,---,0.04,0.00,VWS V14.01,2013-03-01 04:22:00,
2013-02-28 23:27:00,32.9,30.6,29.85,NW,322,2.0,6.0,91,0.00,,---,0.04,0.00,VWS V14.01,2013-03-01 04:27:00,
2013-02-28 23:30:00,32.4,30.3,29.86,NW,315,4.0,7.0,92,0.00,,---,0.00,0.00,VWS V14.01,2013-03-01 04:30:00,
2013-02-28 23:32:00,32.9,30.6,29.85,NW,322,3.0,4.0,91,0.00,,---,0.04,0.00,VWS V14.01,2013-03-01 04:32:00,
2013-02-28 23:37:00,32.9,30.6,29.86,NW,323,2.0,4.0,91,0.00,,---,0.04,0.00,VWS V14.01,2013-03-01 04:37:00,
2013-02-28 23:43:00,32.9,30.6,29.86,NW,323,3.0,4.0,91,0.00,,---,0.04,0.00,VWS V14.01,2013-03-01 04:43:00,
2013-02-28 23:48:00,32.9,30.6,29.86,NNW,336,2.0,5.0,91,0.00,,---,0.04,0.00,VWS V14.01,2013-03-01 04:48:00,
2013-02-28 23:53:00,32.8,30.5,29.86,North,360,0.0,5.0,91,0.00,,---,0.04,0.00,VWS V14.01,2013-03-01 04:53:00,
2013-02-28 23:58:00,32.8,30.5,29.86,NNW,340,5.0,5.0,91,0.00,,---,0.04,0.00,VWS V14.01,2013-03-01 04:58:00,